CW2274 Weather Reports


time (UTC)temp
C
wind
direction
speed
KPH
gust
KPH
rain 1hr
cm
rain 24hr
cm
rain mn
cm
humidity
%
barometer
mb
20260906214519 36 347 3.2 12.9 0.00 0.00 0.00 27 1012.9
20260906214013 37 308 3.2 16.1 0.00 0.00 0.00 27 1013.1
20260906213527 37 325 3.2 16.1 0.00 0.00 0.00 28 1013.3
20260906213021 37 17 4.8 11.3 0.00 0.00 0.00 26 1013.1
20260906212515 37 321 4.8 12.9 0.00 0.00 0.00 27 1013.3
20260906212029 36 342 4.8 12.9 0.00 0.00 0.00 27 1013.3
20260906211524 37 338 6.4 14.5 0.00 0.00 0.00 26 1013.3
20260906211022 37 287 4.8 14.5 0.00 0.00 0.00 27 1013.3
20260906210517 36 278 4.8 14.5 0.00 0.00 0.00 27 1013.4
20260906210044 37 7 6.4 14.5 0.00 0.00 0.00 27 1013.5
20260906205523 37 293 9.7 16.1 0.00 0.00 0.00 26 1013.5
20260906205017 36 354 4.8 12.9 0.00 0.00 0.00 27 1013.5
20260906204531 36 358 6.4 12.9 0.00 0.00 0.00 27 1013.5
20260906204026 36 309 4.8 11.3 0.00 0.00 0.00 27 1013.6
20260906203520 36 340 6.4 12.9 0.00 0.00 0.00 27 1013.7
20260906203018 36 6 4.8 12.9 0.00 0.00 0.00 28 1013.7
20260906202532 36 310 4.8 11.3 0.00 0.00 0.00 28 1013.7
20260906202026 36 294 4.8 17.7 0.00 0.00 0.00 28 1013.8
20260906201520 36 296 8.0 17.7 0.00 0.00 0.00 28 1013.9
20260906201015 36 284 6.4 19.3 0.00 0.00 0.00 28 1013.8
20260906200528 36 292 6.4 19.3 0.00 0.00 0.00 28 1013.9
20260906200035 36 309 4.8 16.1 0.00 0.00 0.00 29 1013.9
20260906195518 36 298 4.8 14.5 0.00 0.00 0.00 28 1013.8
20260906195013 36 348 3.2 17.7 0.00 0.00 0.00 28 1014.0
20260906194528 37 281 8.0 17.7 0.00 0.00 0.00 29 1014.0
20260906194023 36 292 6.4 14.5 0.00 0.00 0.00 29 1014.1
20260906193519 36 304 3.2 14.5 0.00 0.00 0.00 30 1014.3
20260906193014 36 275 6.4 12.9 0.00 0.00 0.00 29 1014.3
20260906192529 36 344 4.8 16.1 0.00 0.00 0.00 30 1014.4
20260906192025 35 273 9.7 16.1 0.00 0.00 0.00 30 1014.5
20260906191524 35 284 4.8 12.9 0.00 0.00 0.00 32 1014.6
20260906191019 35 304 4.8 16.1 0.00 0.00 0.00 31 1014.6
20260906190516 35 300 4.8 14.5 0.00 0.00 0.00 31 1014.7
20260906190043 35 292 4.8 16.1 0.00 0.00 0.00 32 1014.7
20260906185525 34 288 6.4 16.1 0.00 0.00 0.00 32 1014.7
20260906185019 34 302 4.8 14.5 0.00 0.00 0.00 33 1014.8
20260906184515 35 329 3.2 8.0 0.00 0.00 0.00 32 1014.9
20260906184014 34 342 3.2 11.3 0.00 0.00 0.00 32 1015.1
20260906183529 34 308 3.2 12.9 0.00 0.00 0.00 31 1015.1
20260906183024 34 330 4.8 12.9 0.00 0.00 0.00 32 1015.1
20260906182520 34 306 4.8 11.3 0.00 0.00 0.00 32 1015.3
20260906182015 34 297 3.2 8.0 0.00 0.00 0.00 33 1015.3
20260906181531 34 343 3.2 8.0 0.00 0.00 0.00 32 1015.3
20260906181026 34 302 3.2 9.7 0.00 0.00 0.00 32 1015.3
20260906180524 35 302 3.2 11.3 0.00 0.00 0.00 31 1015.5
20260906180031 34 304 4.8 11.3 0.00 0.00 0.00 33 1015.5
20260906175513 34 344 4.8 11.3 0.00 0.00 0.00 31 1015.6
20260906175027 33 308 1.6 8.0 0.00 0.00 0.00 34 1015.6
20260906174522 33 315 3.2 8.0 0.00 0.00 0.00 33 1015.8
20260906174017 33 307 1.6 12.9 0.00 0.00 0.00 35 1015.6
20260906173532 33 291 6.4 12.9 0.00 0.00 0.00 35 1015.6
20260906173028 33 328 1.6 8.0 0.00 0.00 0.00 36 1015.6
20260906172526 33 328 1.6 9.7 0.00 0.00 0.00 37 1015.6
20260906172021 32 329 3.2 9.7 0.00 0.00 0.00 37 1015.7
20260906171516 31 319 1.6 4.8 0.00 0.00 0.00 38 1015.7
20260906171031 31 319 1.6 4.8 0.00 0.00 0.00 40 1015.6
20260906170527 31 320 1.6 4.8 0.00 0.00 0.00 41 1015.6
20260906170035 31 320 3.2 4.8 0.00 0.00 0.00 41 1015.8
20260906165515 30 321 1.6 8.0 0.00 0.00 0.00 41 1015.9
20260906165015 31 321 1.6 8.0 0.00 0.00 0.00 43 1015.8
20260906164529 30 321 3.2 8.0 0.00 0.00 0.00 41 1015.8
20260906164025 30 337 1.6 4.8 0.00 0.00 0.00 44 1015.9
20260906163520 29 337 1.6 4.8 0.00 0.00 0.00 46 1015.8
20260906163015 29 337 1.6 3.2 0.00 0.00 0.00 46 1015.7
20260906162530 28 337 0.0 3.2 0.00 0.00 0.00 47 1015.8
20260906162026 28 337 1.6 3.2 0.00 0.00 0.00 47 1015.7
20260906161526 28 337 1.6 3.2 0.00 0.00 0.00 48 1015.8
20260906161021 28 338 1.6 3.2 0.00 0.00 0.00 48 1015.8
20260906160516 28 338 1.6 3.2 0.00 0.00 0.00 49 1015.9
20260906160044 28 338 1.6 3.2 0.00 0.00 0.00 50 1015.9
20260906155525 28 338 0.0 3.2 0.00 0.00 0.00 51 1015.9
20260906155021 27 338 1.6 3.2 0.00 0.00 0.00 51 1015.9
20260906154516 27 338 1.6 4.8 0.00 0.00 0.00 51 1015.8
20260906154016 27 338 1.6 4.8 0.00 0.00 0.00 51 1016.0
20260906153531 27 338 1.6 3.2 0.00 0.00 0.00 51 1015.9
20260906153026 27 338 1.6 4.8 0.00 0.00 0.00 51 1016.0
20260906152522 27 338 3.2 4.8 0.00 0.00 0.00 50 1016.1
20260906152018 27 338 1.6 6.4 0.00 0.00 0.00 51 1016.0
20260906151514 27 338 3.2 6.4 0.00 0.00 0.00 51 1016.0
20260906151030 27 337 4.8 6.4 0.00 0.00 0.00 51 1016.0
20260906150525 27 302 3.2 4.8 0.00 0.00 0.00 51 1016.1
20260906150038 26 292 3.2 3.2 0.00 0.00 0.00 53 1016.1
20260906145518 26 292 0.0 1.6 0.00 0.00 0.00 54 1016.0
20260906145014 26 292 1.6 1.6 0.00 0.00 0.00 57 1016.0
20260906144529 26 292 0.0 1.6 0.00 0.00 0.00 56 1016.0
20260906144025 26 292 0.0 1.6 0.00 0.00 0.00 57 1015.9
20260906143519 26 292 0.0 3.2 0.00 0.00 0.00 56 1016.0
20260906143014 26 292 0.0 3.2 0.00 0.00 0.00 58 1015.9
20260906142513 26 292 1.6 3.2 0.00 0.00 0.00 55 1015.9
20260906142029 26 292 0.0 1.6 0.00 0.00 0.00 60 1016.0
20260906141525 25 292 0.0 1.6 0.00 0.00 0.00 60 1015.8
20260906141020 25 292 0.0 1.6 0.00 0.00 0.00 61 1015.6
20260906140516 25 292 0.0 1.6 0.00 0.00 0.00 60 1015.7
20260906140043 25 292 1.6 3.2 0.00 0.00 0.00 60 1015.6
20260906135524 24 292 0.0 3.2 0.00 0.00 0.00 62 1015.6
20260906135024 25 292 1.6 4.8 0.00 0.00 0.00 59 1015.5
20260906134519 25 292 3.2 4.8 0.00 0.00 0.00 57 1015.5
20260906134014 25 292 1.6 3.2 0.00 0.00 0.00 58 1015.5
20260906133528 25 292 1.6 3.2 0.00 0.00 0.00 59 1015.4
20260906133023 25 292 1.6 3.2 0.00 0.00 0.00 58 1015.5
20260906132518 25 292 1.6 3.2 0.00 0.00 0.00 56 1015.4
20260906132014 25 292 1.6 3.2 0.00 0.00 0.00 56 1015.4
20260906131513 24 292 3.2 3.2 0.00 0.00 0.00 57 1015.4
20260906131028 25 292 1.6 4.8 0.00 0.00 0.00 55 1015.4
20260906130522 25 292 1.6 4.8 0.00 0.00 0.00 56 1015.4
20260906130029 25 292 3.2 3.2 0.00 0.00 0.00 58 1015.4
20260906125530 25 292 1.6 3.2 0.00 0.00 0.00 57 1015.4
20260906125024 24 292 3.2 3.2 0.00 0.00 0.00 57 1015.4
20260906124519 25 292 1.6 3.2 0.00 0.00 0.00 57 1015.3
20260906124015 25 292 1.6 3.2 0.00 0.00 0.00 57 1015.2
20260906123514 25 292 0.0 3.2 0.00 0.00 0.00 56 1015.2
20260906123030 25 292 0.0 3.2 0.00 0.00 0.00 55 1015.2
20260906122525 25 292 1.6 3.2 0.00 0.00 0.00 56 1015.1
20260906122020 25 292 1.6 3.2 0.00 0.00 0.00 55 1015.1
20260906121515 25 292 0.0 0.0 0.00 0.00 0.00 54 1015.0
20260906121031 25 292 0.0 1.6 0.00 0.00 0.00 54 1014.9
20260906120526 25 292 0.0 3.2 0.00 0.00 0.00 53 1014.8
20260906120037 25 292 1.6 3.2 0.00 0.00 0.00 53 1014.8
20260906115518 25 292 1.6 3.2 0.00 0.00 0.00 52 1014.7
20260906115014 26 292 0.0 4.8 0.00 0.00 0.00 52 1014.7
20260906114528 26 292 0.0 4.8 0.00 0.00 0.00 52 1014.7
20260906114024 26 292 1.6 3.2 0.00 0.00 0.00 51 1014.6
20260906113520 26 292 1.6 4.8 0.00 0.00 0.00 51 1014.6
20260906113015 26 292 1.6 4.8 0.00 0.00 0.00 50 1014.6
20260906112514 26 292 1.6 3.2 0.00 0.00 0.00 51 1014.5
20260906112029 26 292 1.6 3.2 0.00 0.00 0.00 51 1014.5
20260906111524 26 292 1.6 3.2 0.00 0.00 0.00 50 1014.5
20260906111020 26 292 1.6 3.2 0.00 0.00 0.00 51 1014.4
20260906110616 26 292 1.6 4.8 0.00 0.00 0.00 51 1014.5
20260906110038 26 292 1.6 4.8 0.00 0.00 0.00 50 1014.5
20260906105520 26 292 3.2 4.8 0.00 0.00 0.00 50 1014.5
20260906105015 26 292 3.2 4.8 0.00 0.00 0.00 50 1014.4
20260906104530 26 292 3.2 4.8 0.00 0.00 0.00 50 1014.3
20260906104029 26 292 1.6 3.2 0.00 0.00 0.00 49 1014.5
20260906103524 26 292 1.6 3.2 0.00 0.00 0.00 49 1014.5
20260906103020 26 292 1.6 4.8 0.00 0.00 0.00 50 1014.5
20260906102515 26 292 1.6 4.8 0.00 0.00 0.00 50 1014.5
20260906102030 26 292 1.6 3.2 0.00 0.00 0.00 50 1014.5
20260906101526 26 292 1.6 3.2 0.00 0.00 0.00 49 1014.5
20260906101022 26 292 1.6 3.2 0.00 0.00 0.00 48 1014.4
20260906100521 26 292 1.6 3.2 0.00 0.00 0.00 48 1014.5
20260906100028 26 292 1.6 3.2 0.00 0.00 0.00 47 1014.4
20260906095528 26 292 1.6 3.2 0.00 0.00 0.00 47 1014.4
20260906095023 26 292 1.6 3.2 0.00 0.00 0.00 47 1014.4
20260906094517 26 292 1.6 4.8 0.00 0.00 0.00 46 1014.4
20260906094012 26 292 1.6 6.4 0.00 0.00 0.00 46 1014.4
20260906093527 26 292 3.2 4.8 0.00 0.00 0.00 46 1014.4
20260906093021 26 292 3.2 4.8 0.00 0.00 0.00 45 1014.5
20260906092519 26 292 3.2 4.8 0.00 0.00 0.00 45 1014.4
20260906092014 26 292 3.2 4.8 0.00 0.00 0.00 45 1014.3
20260906091528 27 292 3.2 4.8 0.00 0.00 0.00 45 1014.4
20260906091023 27 292 1.6 4.8 0.00 0.00 0.00 44 1014.4
20260906090518 27 292 1.6 4.8 0.00 0.00 0.00 44 1014.4
20260906090044 26 292 3.2 4.8 0.00 0.00 0.00 45 1014.4
20260906085524 27 292 3.2 4.8 0.00 0.00 0.00 45 1014.4
20260906085023 27 292 1.6 4.8 0.00 0.00 0.00 44 1014.5
20260906084517 27 292 3.2 4.8 0.00 0.00 0.00 43 1014.5
20260906084032 27 292 3.2 4.8 0.00 0.00 0.00 42 1014.6
20260906083523 27 292 1.6 4.8 0.00 0.00 0.00 42 1014.4
20260906083017 27 292 3.2 4.8 0.00 0.00 0.00 42 1014.5
20260906082512 27 292 3.2 4.8 0.00 0.00 0.00 42 1014.4
20260906082026 28 292 3.2 4.8 0.00 0.00 0.00 41 1014.5
20260906081520 28 292 3.2 4.8 0.00 0.00 0.00 41 1014.5
20260906081019 28 292 3.2 4.8 0.00 0.00 0.00 41 1014.6
20260906080514 28 292 1.6 4.8 0.00 0.00 0.00 41 1014.6
20260906080040 28 292 3.2 4.8 0.00 0.00 0.00 41 1014.7
20260906075520 28 291 1.6 6.4 0.00 0.00 0.00 40 1014.6
20260906075015 28 291 3.2 9.7 0.00 0.00 0.00 40 1014.6
20260906074530 28 290 3.2 9.7 0.00 0.00 0.00 40 1014.6
20260906074024 28 290 4.8 6.4 0.00 0.00 0.00 40 1014.8
20260906073523 29 290 3.2 6.4 0.00 0.00 0.00 39 1014.8
20260906073017 29 290 3.2 11.3 0.00 0.00 0.00 39 1014.8
20260906072511 29 291 4.8 11.3 0.00 0.00 0.00 39 1014.7
20260906072026 29 292 3.2 6.4 0.00 0.00 0.00 39 1014.8
20260906071520 29 292 4.8 6.4 0.00 0.00 0.00 40 1014.8
20260906071015 29 293 3.2 8.0 0.00 0.00 0.00 39 1014.8
20260906070529 29 292 4.8 11.3 0.00 0.00 0.00 39 1014.8
20260906070036 29 292 4.8 11.3 0.00 0.00 0.00 40 1014.9
20260906065521 29 287 4.8 11.3 0.00 0.00 0.00 39 1014.7
20260906065016 29 279 6.4 11.3 0.00 0.00 0.00 40 1014.8
20260906064531 29 286 6.4 11.3 0.00 0.00 0.00 40 1014.8
20260906064025 29 280 6.4 11.3 0.00 0.00 0.00 40 1014.9
20260906063519 29 283 6.4 11.3 0.00 0.00 0.00 40 1014.9
20260906063013 29 288 4.8 9.7 0.00 0.00 0.00 39 1014.9
20260906062528 29 288 4.8 11.3 0.00 0.00 0.00 39 1014.9
20260906062026 30 288 4.8 11.3 0.00 0.00 0.00 39 1014.9
20260906061520 30 292 4.8 8.0 0.00 0.00 0.00 39 1014.9
20260906061015 30 294 4.8 11.3 0.00 0.00 0.00 39 1014.9
20260906060529 29 281 4.8 11.3 0.00 0.00 0.00 39 1014.9
20260906060036 30 277 6.4 11.3 0.00 0.00 0.00 39 1014.9
20260906055515 30 291 4.8 11.3 0.00 0.00 0.00 40 1015.0
20260906055029 30 294 3.2 8.0 0.00 0.00 0.00 40 1015.0
20260906054524 30 294 3.2 8.0 0.00 0.00 0.00 40 1015.0
20260906054022 30 295 4.8 8.0 0.00 0.00 0.00 40 1015.1
20260906053515 30 296 3.2 8.0 0.00 0.00 0.00 40 1015.2
20260906053029 30 296 3.2 8.0 0.00 0.00 0.00 40 1015.2
20260906052523 30 295 3.2 8.0 0.00 0.00 0.00 40 1015.2
20260906052017 30 294 3.2 8.0 0.00 0.00 0.00 40 1015.2
20260906051531 30 292 4.8 8.0 0.00 0.00 0.00 40 1015.3
20260906051025 30 293 3.2 8.0 0.00 0.00 0.00 40 1015.3
20260906050523 30 294 4.8 8.0 0.00 0.00 0.00 40 1015.3
20260906050030 30 295 4.8 6.4 0.00 0.00 0.00 40 1015.4
20260906045529 30 296 4.8 6.4 0.00 0.00 0.00 40 1015.3
20260906045024 30 297 3.2 8.0 0.00 0.00 0.00 40 1015.3
20260906044518 30 297 4.8 8.0 0.00 0.00 0.00 41 1015.4
20260906044013 30 323 4.8 8.0 0.00 0.00 0.00 42 1015.3
20260906043528 30 323 1.6 8.0 0.00 0.00 0.00 42 1015.2
20260906043023 30 323 3.2 8.0 0.00 0.00 0.00 42 1015.3
20260906042522 30 325 4.8 8.0 0.00 0.00 0.00 43 1015.3
20260906042016 30 326 3.2 8.0 0.00 0.00 0.00 43 1015.2
20260906041529 30 326 3.2 8.0 0.00 0.00 0.00 44 1015.2
20260906041023 30 326 3.2 6.4 0.00 0.00 0.00 43 1015.1
20260906040518 30 326 4.8 6.4 0.00 0.00 0.00 42 1015.1
20260906040045 30 326 3.2 6.4 0.00 0.00 0.00 42 1015.1
20260906035525 30 326 1.6 4.8 0.00 0.00 0.00 42 1015.1
20260906035023 30 326 3.2 6.4 0.00 0.00 0.00 42 1015.1
20260906034517 30 326 0.0 1.6 0.00 0.00 0.00 42 1015.1
20260906034031 30 326 0.0 3.2 0.00 0.00 0.00 41 1015.1
20260906033525 31 326 0.0 3.2 0.00 0.00 0.00 41 1015.0
20260906033019 31 326 1.6 4.8 0.00 0.00 0.00 40 1014.8
20260906032533 31 326 1.6 4.8 0.00 0.00 0.00 39 1014.8
20260906032027 31 326 1.6 4.8 0.00 0.00 0.00 39 1014.7
20260906031521 31 326 1.6 4.8 0.00 0.00 0.00 39 1014.8
20260906031020 31 326 1.6 4.8 0.00 0.00 0.00 38 1014.6
20260906030514 31 326 1.6 3.2 0.00 0.00 0.00 38 1014.6
20260906030041 32 326 1.6 4.8 0.00 0.00 0.00 38 1014.5
20260906025520 32 326 3.2 4.8 0.00 0.00 0.00 37 1014.4
20260906025014 32 325 3.2 4.8 0.00 0.00 0.00 37 1014.2
20260906024529 32 326 1.6 4.8 0.00 0.00 0.00 37 1014.3
20260906024023 32 326 3.2 6.4 0.00 0.00 0.00 37 1014.3
20260906023521 32 326 1.6 3.2 0.00 0.00 0.00 36 1014.3
20260906023016 32 326 1.6 3.2 0.00 0.00 0.00 36 1014.2
20260906022531 32 327 1.6 4.8 0.00 0.00 0.00 36 1014.1
20260906022026 32 327 1.6 4.8 0.00 0.00 0.00 36 1014.0
20260906021520 32 327 1.6 3.2 0.00 0.00 0.00 35 1014.0
20260906021015 32 327 1.6 4.8 0.00 0.00 0.00 35 1014.1
20260906020529 32 327 1.6 4.8 0.00 0.00 0.00 35 1014.0
20260906020035 32 327 1.6 6.4 0.00 0.00 0.00 35 1014.0
20260906015520 32 347 0.0 6.4 0.00 0.00 0.00 34 1014.0
20260906015014 33 348 1.6 6.4 0.00 0.00 0.00 34 1014.1
20260906014529 33 350 1.6 9.7 0.00 0.00 0.00 34 1014.0
20260906014023 33 351 3.2 9.7 0.00 0.00 0.00 33 1014.0
20260906013518 33 339 3.2 8.0 0.00 0.00 0.00 34 1014.0
20260906013032 33 329 3.2 8.0 0.00 0.00 0.00 34 1013.9
20260906012526 33 331 3.2 8.0 0.00 0.00 0.00 34 1013.9
20260906012025 33 298 3.2 14.5 0.00 0.00 0.00 33 1014.0
20260906011519 33 291 3.2 14.5 0.00 0.00 0.00 33 1014.1
20260906011013 33 296 3.2 11.3 0.00 0.00 0.00 34 1014.0
20260906010528 33 302 3.2 8.0 0.00 0.00 0.00 33 1014.0
20260906010034 34 310 3.2 17.7 0.00 0.00 0.00 33 1014.1
20260906005514 34 282 8.0 17.7 0.00 0.00 0.00 33 1014.1
20260906005028 34 6 4.8 16.1 0.00 0.00 0.00 33 1014.0
20260906004521 34 303 4.8 9.7 0.00 0.00 0.00 33 1013.9
20260906004018 34 339 4.8 12.9 0.00 0.00 0.00 33 1014.0
20260906003533 35 303 4.8 14.5 0.00 0.00 0.00 33 1013.9
20260906003026 35 311 3.2 14.5 0.00 0.00 0.00 33 1014.0
20260906002520 35 290 4.8 14.5 0.00 0.00 0.00 33 1013.9
20260906002014 35 344 3.2 11.3 0.00 0.00 0.00 33 1014.0
20260906001528 35 308 3.2 11.3 0.00 0.00 0.00 33 1013.8
20260906001023 35 344 4.8 12.9 0.00 0.00 0.00 32 1014.0
20260906000521 35 315 4.8 12.9 0.00 0.00 0.00 33 1014.0
20260906000028 35 355 3.2 16.1 0.00 0.00 0.00 33 1013.9
20260905235527 35 310 6.4 16.1 0.00 0.00 0.00 32 1013.9
20260905235021 35 289 4.8 16.1 0.00 0.00 0.00 32 1013.8
20260905234515 35 292 4.8 12.9 0.00 0.00 0.00 33 1013.9
20260905234029 35 282 6.4 12.9 0.00 0.00 0.00 32 1013.8
20260905233523 35 335 3.2 12.9 0.00 0.00 0.00 32 1013.8
20260905233018 36 311 3.2 20.9 0.00 0.00 0.00 32 1013.9
20260905232517 35 337 6.4 17.7 0.00 0.00 0.00 32 1013.9
20260905232031 35 337 3.2 16.1 0.00 0.00 0.00 31 1013.9
20260905231526 36 330 6.4 14.5 0.00 0.00 0.00 31 1013.9
20260905231020 35 331 6.4 16.1 0.00 0.00 0.00 32 1014.1
20260905230514 35 357 3.2 16.1 0.00 0.00 0.00 33 1014.1
20260905230040 36 319 3.2 16.1 0.00 0.00 0.00 32 1014.1
20260905225520 36 280 6.4 16.1 0.00 0.00 0.00 31 1014.1
20260905225019 36 336 4.8 17.7 0.00 0.00 0.00 31 1014.1
20260905224514 36 277 6.4 17.7 0.00 0.00 0.00 32 1014.0
20260905224029 35 335 6.4 11.3 0.00 0.00 0.00 31 1014.2
20260905223523 36 347 4.8 14.5 0.00 0.00 0.00 32 1014.2
20260905223018 36 354 4.8 19.3 0.00 0.00 0.00 32 1014.3
20260905222514 36 280 8.0 19.3 0.00 0.00 0.00 30 1014.2
20260905222029 36 296 4.8 16.1 0.00 0.00 0.00 30 1014.3
20260905221524 36 352 6.4 14.5 0.00 0.00 0.00 31 1014.4
20260905221024 36 298 8.0 14.5 0.00 0.00 0.00 30 1014.5
20260905220520 36 302 4.8 14.5 0.00 0.00 0.00 31 1014.4
20260905220028 36 281 6.4 16.1 0.00 0.00 0.00 31 1014.4
20260905215527 36 9 6.4 16.1 0.00 0.00 0.00 31 1014.5
20260905215023 36 307 4.8 19.3 0.00 0.00 0.00 30 1014.7